Date String (YYYY-MM-DD hh:mm:ss) UTC,Instrument flags,Ambient pressure (hPa),Sample flow (lpm),Bypass flow (lpm),Sample temperature (°C),Ambient temperature (°C),ASC tube jacket temperature (°C),LED temperature (°C),Box temperature (°C),Sample RH (%),Span deviation,Mass concentration (μg/m³),Mass concentration (μg/m³),Mass concentration (μg/m³)
DateTimeUTC,F1_M11,P_M11,Q1_M11,Q2_M11,T1_M11,T2_M11,T3_M11,T4_M11,T5_M11,U1_M11,ZSPAN_M11,X0_M11,X2_M11,X1_M11
2022-06-04 13:00:00,,0822.4,5.01,0.00,27.9,26.9,00.0,36.8,29.7,22.9,0000.0,0010.41,0004.93,0004.20
2022-06-04 13:01:00,,0822.5,4.99,0.00,27.9,26.9,00.0,36.8,29.7,23.2,0000.0,0010.90,0005.00,0004.25
2022-06-04 13:02:00,,0822.5,4.99,0.00,27.9,26.9,00.0,36.8,29.7,23.4,0000.0,0011.06,0005.10,0004.32
2022-06-04 13:03:00,,0822.4,5.01,0.00,27.9,26.9,00.0,36.8,29.7,23.6,0000.0,0011.38,0005.20,0004.38
2022-06-04 13:04:00,,0822.5,5.01,0.00,27.8,26.8,00.0,36.8,29.7,23.8,0000.0,0011.52,0005.26,0004.44
2022-06-04 13:05:00,,0822.5,5.00,0.00,27.8,26.8,00.0,36.8,29.7,23.7,0000.0,0011.77,0005.24,0004.47
2022-06-04 13:06:00,,0822.5,5.00,0.00,27.8,26.8,00.0,36.8,29.7,23.3,0000.0,0011.43,0005.29,0004.51
2022-06-04 13:07:00,,0822.5,5.00,0.00,27.8,26.8,00.0,36.8,29.7,22.9,0000.0,0011.59,0005.31,0004.52
2022-06-04 13:08:00,,0822.5,4.99,0.00,27.8,26.8,00.0,36.8,29.7,22.2,0000.0,0011.87,0005.29,0004.50
2022-06-04 13:09:00,,0822.4,4.99,0.00,27.8,26.8,00.0,36.8,29.7,22.5,0000.0,0011.99,0005.26,0004.47
2022-06-04 13:10:00,,0822.4,5.00,0.00,27.8,26.8,00.0,36.8,29.7,22.0,0000.0,0011.77,0005.17,0004.42
2022-06-04 13:11:00,,0822.4,5.00,0.00,27.8,26.8,00.0,36.8,29.7,21.3,0000.0,0011.19,0005.06,0004.34
2022-06-04 13:12:00,,0822.4,5.00,0.00,27.8,26.8,00.0,36.8,29.7,21.6,0000.0,0010.48,0004.96,0004.27
2022-06-04 13:13:00,,0822.4,5.00,0.00,27.8,26.8,00.0,36.8,29.7,22.2,0000.0,0010.32,0004.84,0004.18
2022-06-04 13:14:00,,0822.4,5.00,0.00,27.8,26.8,00.0,36.8,29.7,21.9,0000.0,0010.07,0004.73,0004.09
2022-06-04 13:15:00,,0822.4,4.99,0.00,27.8,26.8,00.0,36.8,29.7,21.4,0000.0,0009.82,0004.63,0004.00
2022-06-04 13:16:00,,0822.4,4.99,0.00,27.8,26.8,00.0,36.8,29.7,21.2,0000.0,0009.12,0004.58,0003.92
2022-06-04 13:17:00,,0822.4,4.99,0.00,27.8,26.8,00.0,36.8,29.7,21.5,0000.0,0008.99,0004.50,0003.84
2022-06-04 13:18:00,,0822.4,5.00,0.00,27.8,26.8,00.0,36.8,29.7,21.4,0000.0,0008.76,0004.42,0003.78
2022-06-04 13:19:00,,0822.4,5.00,0.00,27.8,26.8,00.0,36.8,29.7,21.2,0000.0,0008.49,0004.38,0003.72
2022-06-04 13:20:00,,0822.5,5.00,0.00,27.8,26.8,00.0,36.8,29.7,20.8,0000.0,0008.19,0004.31,0003.67
2022-06-04 13:21:00,,0822.5,5.00,0.00,27.8,26.8,00.0,36.8,29.7,21.0,0000.0,0008.36,0004.26,0003.63
2022-06-04 13:22:00,,0822.5,5.00,0.00,27.8,26.8,00.0,36.8,29.7,21.3,0000.0,0008.54,0004.27,0003.62
2022-06-04 13:23:00,,0822.5,5.00,0.00,27.8,26.8,00.0,36.8,29.7,21.7,0000.0,0008.54,0004.26,0003.60
2022-06-04 13:24:00,,0822.5,5.00,0.00,27.8,26.8,00.0,36.8,29.7,21.1,0000.0,0009.17,0004.26,0003.59
2022-06-04 13:25:00,,0822.5,4.99,0.00,27.8,26.8,00.0,36.8,29.7,21.4,0000.0,0009.32,0004.25,0003.59
2022-06-04 13:26:00,,0822.4,5.00,0.00,27.8,26.8,00.0,36.8,29.7,21.4,0000.0,0010.17,0004.27,0003.59
2022-06-04 13:27:00,,0822.4,5.01,0.00,27.8,26.8,00.0,36.8,29.7,21.3,0000.0,0010.63,0004.30,0003.61
2022-06-04 13:28:00,,0822.5,5.01,0.00,27.8,26.8,00.0,36.8,29.7,21.8,0000.0,0010.58,0004.30,0003.62
2022-06-04 13:29:00,,0822.4,5.00,0.00,27.8,26.8,00.0,36.8,29.7,21.8,0000.0,0010.67,0004.35,0003.64
2022-06-04 13:30:00,,0822.5,5.00,0.00,27.8,26.8,00.0,36.8,29.7,21.1,0000.0,0010.62,0004.37,0003.66
2022-06-04 13:31:00,,0822.4,4.99,0.00,27.8,26.8,00.0,36.8,29.7,21.7,0000.0,0010.62,0004.37,0003.67
2022-06-04 13:32:00,,0822.4,5.01,0.00,27.8,26.8,00.0,36.8,29.7,22.5,0000.0,0010.45,0004.44,0003.69
2022-06-04 13:33:00,,0822.4,4.99,0.00,27.8,26.8,00.0,36.8,29.7,23.5,0000.0,0010.38,0004.44,0003.72
2022-06-04 13:34:00,,0822.4,5.00,0.00,27.8,26.9,00.0,36.8,29.7,23.2,0000.0,0010.52,0004.48,0003.75
2022-06-04 13:35:00,,0822.4,5.00,0.00,27.8,26.9,00.0,36.8,29.8,22.7,0000.0,0010.22,0004.53,0003.78
2022-06-04 13:36:00,,0822.4,5.00,0.00,27.8,26.9,00.0,36.8,29.8,23.0,0000.0,0010.03,0004.56,0003.82
2022-06-04 13:37:00,,0822.4,5.00,0.00,27.8,26.9,00.0,36.8,29.8,22.9,0000.0,0008.97,0004.56,0003.84
2022-06-04 13:38:00,,0822.3,5.00,0.00,27.9,26.9,00.0,36.8,29.8,23.2,0000.0,0008.62,0004.56,0003.86
2022-06-04 13:39:00,,0822.3,5.01,0.00,27.9,26.9,00.0,36.8,29.8,23.3,0000.0,0008.67,0004.59,0003.89
2022-06-04 13:40:00,,0822.4,4.99,0.00,27.9,26.9,00.0,36.8,29.8,23.6,0000.0,0008.64,0004.56,0003.89
2022-06-04 13:41:00,,0822.4,4.99,0.00,27.9,26.9,00.0,36.8,29.8,23.5,0000.0,0008.64,0004.59,0003.91
2022-06-04 13:42:00,,0822.3,5.00,0.00,27.9,26.9,00.0,36.8,29.8,23.9,0000.0,0008.97,0004.64,0003.95
2022-06-04 13:43:00,,0822.3,5.01,0.00,27.9,27.0,00.0,36.8,29.9,24.4,0000.0,0009.78,0004.66,0003.97
2022-06-04 13:44:00,,0822.3,5.00,0.00,27.9,27.0,00.0,36.8,29.9,23.3,0000.0,0009.84,0004.72,0003.98
2022-06-04 13:45:00,,0822.3,5.00,0.00,27.9,27.0,00.0,36.8,29.9,22.9,0000.0,0009.64,0004.68,0003.96
2022-06-04 13:46:00,,0822.3,5.00,0.00,28.0,27.0,00.0,36.8,29.9,24.1,0000.0,0009.36,0004.63,0003.95
2022-06-04 13:47:00,,0822.3,5.01,0.00,28.0,27.0,00.0,36.8,29.9,23.2,0000.0,0009.92,0004.59,0003.92
2022-06-04 13:48:00,,0822.4,4.99,0.00,28.0,27.1,00.0,36.8,29.9,22.6,0000.0,0010.00,0004.57,0003.89
2022-06-04 13:49:00,,0822.3,4.99,0.00,28.0,27.1,00.0,36.8,30.0,23.5,0000.0,0010.07,0004.54,0003.85
2022-06-04 13:50:00,,0822.4,5.00,0.00,28.0,27.1,00.0,36.8,30.0,24.6,0000.0,0010.36,0004.46,0003.82
2022-06-04 13:51:00,,0822.4,5.01,0.00,28.0,27.1,00.0,36.9,30.0,25.0,0000.0,0010.26,0004.43,0003.80
2022-06-04 13:52:00,,0822.4,5.01,0.00,28.1,27.1,00.0,36.9,30.0,24.8,0000.0,0010.16,0004.37,0003.78
2022-06-04 13:53:00,,0822.4,4.99,0.00,28.1,27.1,00.0,36.9,30.0,24.5,0000.0,0009.99,0004.35,0003.75
2022-06-04 13:54:00,,0822.5,5.00,0.00,28.1,27.2,00.0,36.9,30.0,24.3,0000.0,0009.24,0004.31,0003.72
2022-06-04 13:55:00,,0822.4,5.01,0.00,28.1,27.2,00.0,36.9,30.0,24.4,0000.0,0009.11,0004.25,0003.70
2022-06-04 13:56:00,,0822.5,5.00,0.00,28.1,27.2,00.0,36.9,30.1,24.5,0000.0,0009.15,0004.26,0003.70
2022-06-04 13:57:00,,0822.5,5.00,0.00,28.1,27.2,00.0,36.9,30.1,24.0,0000.0,0009.16,0004.29,0003.68
2022-06-04 13:58:00,,0822.5,5.00,0.00,28.2,27.2,00.0,36.9,30.1,24.1,0000.0,0008.97,0004.28,0003.66
2022-06-04 13:59:00,,0822.5,5.01,0.00,28.2,27.3,00.0,37.0,30.1,23.9,0000.0,0008.86,0004.26,0003.66
